Elizabethton, TN

5:45 AM EDT on June 27, 2017 (GMT -0400)
Elizabethton

Weather History for K0A9 - May, 2014

Change the Weather History Date:

Saturday, May 3, 2014

  Actual Average (KTRI) Record (KTRI)
Temperature  
Mean Temperature 54 °F -  
Max Temperature 68 °F 70 °F 89 °F (1942)
Min Temperature 41 °F 47 °F 32 °F (2005)
Degree Days  
Heating Degree Days 10    
Growing Degree Days 4 (Base 50)    
Moisture  
Dew Point 42 °F    
Average Humidity 64    
Maximum Humidity 93    
Minimum Humidity 37    
Precipitation  
Precipitation 0.00 in - - ()
Sea Level Pressure  
Sea Level Pressure 29.96 in    
Wind  
Wind Speed 1 mph (WSW)    
Max Wind Speed 15 mph    
Max Gust Speed 24 mph    
Visibility 10 miles    
Events      
Averages and records for this station are not official NWS values.
T = Trace of Precipitation, MM = Missing Value Source: NWS Daily Summary

Daily Weather History Graph

Daily Weather History Graph

Search for Another Location

Airport or City:

Trip Planner

Search our weather history database for the weather conditions in past years. The results will help you decide how hot, cold, wet, or windy it might be!

Date:

Astronomy

May. 03, 2014 Rise Set
Actual Time 6:33 AM EDT 8:18 PM EDT
Civil Twilight 6:05 AM EDT 8:46 PM EDT
Nautical Twilight 5:32 AM EDT 9:19 PM EDT
Astronomical Twilight 4:56 AM EDT 9:55 PM EDT
Moon 10:03 AM EDT (5/3) No Moon Set
Length of Visible Light 14h 40m
Length of Day
13h 44m
Waxing Crescent, 19% of the Moon is Illuminated
May 3
Waxing Crescent
May 6
First Quarter
May 14
Full
May 21
Last Quarter
May 28
New

Hourly Weather History & Observations

Time (EDT) Temp. Dew Point Humidity Pressure Visibility Wind Dir Wind Speed Gust Speed Precip Events Conditions
12:15 AM 48.2 °F 42.8 °F 82% 29.93 in 10.0 mi Calm Calm - N/A   Overcast
12:35 AM 48.2 °F 42.8 °F 82% 29.93 in 10.0 mi Calm Calm - N/A   Overcast
12:55 AM 48.2 °F 42.8 °F 82% 29.93 in 10.0 mi Calm Calm - N/A   Overcast
1:15 AM 48.2 °F 42.8 °F 82% 29.93 in 10.0 mi Calm Calm - N/A   Overcast
1:35 AM 48.2 °F 42.8 °F 82% 29.93 in 10.0 mi Calm Calm - N/A   Overcast
1:55 AM 46.4 °F 42.8 °F 87% 29.93 in 10.0 mi Calm Calm - N/A   Overcast
2:15 AM 46.4 °F 42.8 °F 87% 29.94 in 10.0 mi Calm Calm - N/A   Overcast
2:35 AM 48.2 °F 42.8 °F 82% 29.94 in 10.0 mi Calm Calm - N/A   Overcast
2:55 AM 46.4 °F 44.6 °F 93% 29.95 in 10.0 mi Calm Calm - N/A   Overcast
3:15 AM 48.2 °F 44.6 °F 87% 29.95 in 10.0 mi Calm Calm - N/A   Overcast
3:35 AM 48.2 °F 44.6 °F 87% 29.95 in 10.0 mi Calm Calm - N/A   Overcast
3:55 AM 46.4 °F 42.8 °F 87% 29.95 in 10.0 mi Calm Calm - N/A   Mostly Cloudy
4:15 AM 44.6 °F 42.8 °F 93% 29.95 in 10.0 mi Calm Calm - N/A   Partly Cloudy
4:35 AM 44.6 °F 41.0 °F 87% 29.95 in 10.0 mi Calm Calm - N/A   Partly Cloudy
4:55 AM 42.8 °F 39.2 °F 87% 29.95 in 10.0 mi Calm Calm - N/A   Clear
5:15 AM 42.8 °F 39.2 °F 87% 29.95 in 10.0 mi Calm Calm - N/A   Partly Cloudy
5:35 AM 42.8 °F 39.2 °F 87% 29.96 in 10.0 mi Calm Calm - N/A   Mostly Cloudy
5:55 AM 44.6 °F 41.0 °F 87% 29.96 in 10.0 mi Calm Calm - N/A   Overcast
6:15 AM 42.8 °F 41.0 °F 93% 29.96 in 10.0 mi Calm Calm - N/A   Overcast
6:35 AM 42.8 °F 39.2 °F 87% 29.97 in 10.0 mi Calm Calm - N/A   Scattered Clouds
6:55 AM 41.0 °F 39.2 °F 93% 29.98 in 10.0 mi Calm Calm - N/A   Clear
7:15 AM 42.8 °F 39.2 °F 87% 29.98 in 10.0 mi Calm Calm - N/A   Clear
7:35 AM 42.8 °F 41.0 °F 93% 29.99 in 10.0 mi Calm Calm - N/A   Clear
7:55 AM 46.4 °F 42.8 °F 87% 29.99 in 10.0 mi Calm Calm - N/A   Clear
8:15 AM 48.2 °F 42.8 °F 82% 29.99 in 10.0 mi Calm Calm - N/A   Clear
8:35 AM 50.0 °F 42.8 °F 76% 29.99 in 10.0 mi Calm Calm - N/A   Clear
8:55 AM 51.8 °F 42.8 °F 71% 30.00 in 10.0 mi Calm Calm - N/A   Clear
9:15 AM 55.4 °F 42.8 °F 63% 30.00 in 10.0 mi Calm Calm - N/A   Clear
9:35 AM 55.4 °F 39.2 °F 54% 30.00 in 10.0 mi Calm Calm - N/A   Clear
9:55 AM 57.2 °F 39.2 °F 51% 29.99 in 10.0 mi Calm Calm - N/A   Clear
10:15 AM 57.2 °F 39.2 °F 51% 29.99 in 10.0 mi Calm Calm - N/A   Clear
10:35 AM 57.2 °F 37.4 °F 48% 29.99 in 10.0 mi Calm Calm - N/A   Partly Cloudy
10:55 AM 60.8 °F 39.2 °F 45% 29.99 in 10.0 mi Calm Calm - N/A   Partly Cloudy
11:15 AM 60.8 °F 39.2 °F 45% 29.99 in 10.0 mi WNW 6.9 mph 17.3 mph N/A   Clear
11:35 AM 60.8 °F 39.2 °F 45% 29.99 in 10.0 mi WSW 8.1 mph 18.4 mph N/A   Scattered Clouds
11:55 AM 60.8 °F 39.2 °F 45% 29.99 in 10.0 mi Calm Calm - N/A   Scattered Clouds
12:15 PM 62.6 °F 39.2 °F 42% 29.98 in 10.0 mi West 10.4 mph 18.4 mph N/A   Partly Cloudy
12:35 PM 62.6 °F 39.2 °F 42% 29.98 in 10.0 mi West 10.4 mph 16.1 mph N/A   Partly Cloudy
12:55 PM 64.4 °F 39.2 °F 40% 29.97 in 10.0 mi Calm Calm - N/A   Partly Cloudy
1:15 PM 64.4 °F 41.0 °F 42% 29.96 in 10.0 mi WSW 12.7 mph 20.7 mph N/A   Clear
1:35 PM 64.4 °F 42.8 °F 45% 29.96 in 10.0 mi Calm Calm - N/A   Clear
1:55 PM 64.4 °F 41.0 °F 42% 29.95 in 10.0 mi SW 5.8 mph 19.6 mph N/A   Clear
2:15 PM 64.4 °F 42.8 °F 45% 29.95 in 10.0 mi Calm Calm - N/A   Partly Cloudy
2:35 PM 66.2 °F 41.0 °F 40% 29.95 in 10.0 mi Calm Calm - N/A   Partly Cloudy
2:55 PM 66.2 °F 42.8 °F 43% 29.96 in 10.0 mi West 10.4 mph 20.7 mph N/A   Partly Cloudy
3:15 PM 66.2 °F 41.0 °F 40% 29.95 in 10.0 mi Calm Calm - N/A   Partly Cloudy
3:35 PM 68.0 °F 41.0 °F 37% 29.94 in 10.0 mi Variable 6.9 mph - N/A   Partly Cloudy
4:15 PM 66.2 °F 41.0 °F 40% 29.93 in 10.0 mi Calm Calm - N/A   Partly Cloudy
4:55 PM 66.2 °F 39.2 °F 37% 29.93 in 10.0 mi Calm Calm - N/A   Mostly Cloudy
5:15 PM 68.0 °F 42.8 °F 40% 29.92 in 10.0 mi Calm Calm - N/A   Mostly Cloudy
5:35 PM 68.0 °F 41.0 °F 37% 29.92 in 10.0 mi SW 15.0 mph 24.2 mph N/A   Scattered Clouds
5:55 PM 66.2 °F 41.0 °F 40% 29.92 in 10.0 mi Calm Calm - N/A   Partly Cloudy
6:15 PM 66.2 °F 41.0 °F 40% 29.92 in 10.0 mi WSW 3.5 mph 17.3 mph N/A   Partly Cloudy
6:55 PM 66.2 °F 41.0 °F 40% 29.92 in 10.0 mi West 3.5 mph 19.6 mph N/A   Clear
7:15 PM 66.2 °F 42.8 °F 43% 29.92 in 10.0 mi Calm Calm - N/A   Clear
7:35 PM 66.2 °F 42.8 °F 43% 29.93 in 10.0 mi Calm Calm - N/A   Clear
7:55 PM 64.4 °F 42.8 °F 45% 29.93 in 10.0 mi Calm Calm - N/A   Clear
8:15 PM 62.6 °F 42.8 °F 48% 29.94 in 10.0 mi Calm Calm - N/A   Clear
8:35 PM 60.8 °F 42.8 °F 52% 29.94 in 10.0 mi Calm Calm - N/A   Clear
8:55 PM 60.8 °F 42.8 °F 52% 29.95 in 10.0 mi Calm Calm - N/A   Clear
9:15 PM 59.0 °F 42.8 °F 55% 29.96 in 10.0 mi Calm Calm - N/A   Clear
9:35 PM 60.8 °F 42.8 °F 52% 29.97 in 10.0 mi Calm Calm - N/A   Clear
9:55 PM 57.2 °F 44.6 °F 63% 29.98 in 10.0 mi Calm Calm - N/A   Clear
10:15 PM 55.4 °F 44.6 °F 67% 29.99 in 10.0 mi Calm Calm - N/A   Clear
10:35 PM 53.6 °F 42.8 °F 67% 29.99 in 10.0 mi Calm Calm - N/A   Clear
10:55 PM 51.8 °F 42.8 °F 71% 30.00 in 10.0 mi Calm Calm - N/A   Clear
11:15 PM 48.2 °F 42.8 °F 82% 30.00 in 10.0 mi Calm Calm - N/A   Clear
11:35 PM 48.2 °F 42.8 °F 82% 30.01 in 10.0 mi Calm Calm - N/A   Clear
11:55 PM 48.2 °F 42.8 °F 82% 30.02 in 10.0 mi Calm Calm - N/A   Clear